Location: Observatoire
(46.1952°N, 5.3391°E)
Time: 14:56:51
(UTC+01:00)

A-11 Canister half - Pass Details

Date: 17 February 2026
Orbit: 1513 x 1687 km, 47.2° (Epoch: 11 March)

Event Time Altitude Azimuth Distance (km) Brightness Sun altitude
Rises 21:47:45 0° 231° (SW) 4,932 11.9 -38.0°
Reaches altitude 10° 21:50:57 10° 228° (SW) 3,942 11.3 -38.5°
Enters shadow 21:57:01 41° 212° (SSW) 2,285 9.8 -39.4°
Maximum altitude 22:00:55 64° 150° (SSE) 1,815 - -40.0°
Drops below altitude 10° 22:10:39 10° 72° (ENE) 3,863 - -41.5°
Sets 22:13:45 0° 70° (ENE) 4,828 - -41.9°
